Regional Weather Roundup
Issued by NWS

Home | Current Version | Previous Version | Graphics & Text | Print | Product List | Glossary On
Versions: 1 2 3 4 5 6 7 8 9 10 11 12 13 14 15 16 17 18 19 20 21 22 23 24 25 26 27 28 29 30 31 32 33 34 35 36 37 38 39 40 41 42 43 44 45 46 47 48 49 50
000
ASUS43 KLMK 270802
RWRKY
KENTUCKY REGIONAL WEATHER ROUNDUP
NATIONAL WEATHER SERVICE LOUISVILLE KY
400 AM EDT SAT MAY 27 2017

NOTE "FAIR" INDICATES FEW OR NO CLOUDS BELOW 12,000 FEET
WITH NO SIGNIFICANT WEATHER AND/OR OBSTRUCTIONS TO VISIBILITY.

KYZ001>023-026-027-061>063-070>075-270900-
WESTERN AND SOUTH CENTRAL KENTUCKY

CITY           SKY/WX    TMP DP  RH WIND       PRES   REMARKS
PADUCAH        CLOUDY    70  66  87 S3        29.84F
HENDERSON      CLEAR     69  67  93 SW6       29.85S
OWENSBORO      PTCLDY    70  66  87 SW6       29.86R
HOPKINSVILLE   CLOUDY    72  63  72 S3        29.88S
BOWLING GREEN  CLOUDY    75  62  64 SW8       29.88S
GLASGOW        NOT AVBL
$$

KYZ024-025-028>034-038-045-046-053-270900-
NORTH CENTRAL KENTUCKY

CITY           SKY/WX    TMP DP  RH WIND       PRES   REMARKS
LOUISVILLE/SDF MOCLDY    74  65  73 W7        29.84S
LOUISVILLE/LOU MOCLDY    74  66  76 SW7       29.85S
FORT KNOX      PTCLDY    70  63  77 SW6       29.84S
$$

KYZ035>037-039>044-047>052-055>060-089>105-270900-
NORTHEAST KENTUCKY

CITY           SKY/WX    TMP DP  RH WIND       PRES   REMARKS
LEXINGTON      CLOUDY    72  61  68 SW8       29.87S
COVINGTON      CLOUDY    72  63  73 SW6       29.83S
FRANKFORT      CLOUDY    72  61  68 SW6       29.85S
$$

KYZ054-064>069-076>088-106>120-270900-
SOUTHEAST KENTUCKY

CITY           SKY/WX    TMP DP  RH WIND       PRES   REMARKS
JACKSON        CLOUDY    68  60  75 CALM      29.92F
LONDON         CLOUDY    71  59  65 S5        29.93S
SOMERSET       CLOUDY    70  59  68 S5        29.93S
MIDDLESBORO    PTCLDY    65  62  91 W3        29.97F
MONTICELLO     CLOUDY    73  62  68 SW15      29.93F
$$





USA.gov is the U.S. government's official web portal to all federal, state and local government web resources and services.